Weather History for KALO - March, 2014

Change the Weather History Date:

Monday, March 17, 2014

  Actual Average Record
Temperature  
Mean Temperature 31 °F 36 °F  
Max Temperature 41 °F 46 °F 82 °F (2012)
Min Temperature 20 °F 27 °F -4 °F (1902)
Degree Days  
Heating Degree Days 34 29  
Month to date heating degree days 709 549  
Since 1 July heating degree days 7117 5968  
Cooling Degree Days 0 0  
Month to date cooling degree days 0 0  
Year to date cooling degree days 0 0  
Moisture  
Dew Point 19 °F    
Average Humidity 63    
Maximum Humidity 77    
Minimum Humidity 48    
Precipitation  
Precipitation 0.00 in 0.07 in 0.76 in (1965)
Month to date precipitation 0.44 0.99  
Year to date precipitation 3.07 2.81  
Snow  
Snow 0.00 in 0.10 in 5.90 in (1965)
Month to date snowfall 5.6 2.9  
Since 1 July snowfall 57.4 31.8  
Snow Depth T in    
Sea Level Pressure  
Sea Level Pressure 29.82 in    
Wind  
Wind Speed 15 mph (SSE)    
Max Wind Speed 25 mph    
Max Gust Speed 32 mph    
Visibility 10 miles    
Events      
T = Trace of Precipitation, MM = Missing Value Source: NWS Daily Summary

Daily Weather History Graph

Daily Weather History Graph

Search for Another Location

Airport or City:

Trip Planner

Search our weather history database for the weather conditions in past years. The results will help you decide how hot, cold, wet, or windy it might be!

Date:

Astronomy

Mar. 17, 2014 Rise Set
Actual Time 7:18 AM CDT 7:18 PM CDT
Civil Twilight 6:50 AM CDT 7:46 PM CDT
Nautical Twilight 6:17 AM CDT 8:19 PM CDT
Astronomical Twilight 5:43 AM CDT 8:52 PM CDT
Moon 8:38 PM CDT (3/17) 7:32 AM CDT (3/17)
Length of Visible Light 12h 56m
Length of Day
12h 00m
Full, 99% of the Moon is Illuminated
Mar 17
Full
Mar 23
Last Quarter
Mar 30
New
Apr 7
First Quarter
Apr 15
Full

Hourly Weather History & Observations

Time (CDT) Temp. Windchill Dew Point Humidity Pressure Visibility Wind Dir Wind Speed Gust Speed Precip Events Conditions
12:54 AM 19.9 °F 11.1 °F 12.9 °F 74% 30.12 in 10.0 mi SSE 6.9 mph - N/A   Mostly Cloudy
1:54 AM 19.9 °F 10.1 °F 12.9 °F 74% 30.10 in 10.0 mi SSE 8.1 mph - N/A   Mostly Cloudy
2:54 AM 21.0 °F 10.6 °F 14.0 °F 74% 30.07 in 10.0 mi South 9.2 mph - N/A   Clear
3:54 AM 21.0 °F 8.6 °F 14.0 °F 74% 30.02 in 10.0 mi SSE 12.7 mph - N/A   Overcast
4:54 AM 21.0 °F 8.6 °F 12.0 °F 68% 29.99 in 10.0 mi South 12.7 mph - N/A   Overcast
5:54 AM 21.0 °F 8.1 °F 12.0 °F 68% 29.96 in 10.0 mi South 13.8 mph - N/A   Partly Cloudy
6:54 AM 19.9 °F 7.3 °F 12.9 °F 74% 29.94 in 10.0 mi South 12.7 mph - N/A   Clear
7:54 AM 19.9 °F 6.2 °F 14.0 °F 78% 29.93 in 10.0 mi South 15.0 mph - N/A   Mostly Cloudy
8:54 AM 21.0 °F 7.1 °F 15.1 °F 78% 29.91 in 10.0 mi South 16.1 mph - N/A   Overcast
9:54 AM 24.1 °F 9.4 °F 16.0 °F 71% 29.88 in 10.0 mi SSE 20.7 mph - N/A   Mostly Cloudy
10:54 AM 27.0 °F 13.2 °F 18.0 °F 69% 29.85 in 10.0 mi South 20.7 mph - N/A   Mostly Cloudy
11:54 AM 28.9 °F 15.4 °F 19.0 °F 67% 29.80 in 10.0 mi South 21.9 mph 29.9 mph N/A   Mostly Cloudy
12:54 PM 33.1 °F 21.5 °F 21.9 °F 64% 29.76 in 10.0 mi South 19.6 mph 26.5 mph N/A   Clear
1:54 PM 36.0 °F 25.3 °F 23.0 °F 59% 29.73 in 10.0 mi SSE 19.6 mph 32.2 mph N/A   Clear
2:54 PM 39.0 °F 29.3 °F 25.0 °F 57% 29.68 in 10.0 mi South 19.6 mph 27.6 mph N/A   Clear
3:54 PM 39.0 °F 29.0 °F 23.0 °F 53% 29.64 in 10.0 mi South 20.7 mph 28.8 mph N/A   Clear
4:54 PM 39.9 °F 30.2 °F 24.1 °F 53% 29.64 in 10.0 mi South 20.7 mph 26.5 mph N/A   Clear
5:54 PM 39.0 °F 29.9 °F 21.9 °F 50% 29.62 in 10.0 mi South 17.3 mph 27.6 mph N/A   Clear
6:54 PM 37.0 °F 27.7 °F 24.1 °F 59% 29.63 in 10.0 mi SSE 16.1 mph 24.2 mph N/A   Clear
7:54 PM 35.1 °F 26.4 °F 23.0 °F 61% 29.65 in 10.0 mi SSE 12.7 mph - N/A   Clear
8:54 PM 34.0 °F 26.6 °F 23.0 °F 64% 29.67 in 10.0 mi SSE 9.2 mph - N/A   Clear
9:54 PM 34.0 °F 25.5 °F 23.0 °F 64% 29.68 in 10.0 mi SE 11.5 mph - N/A   Clear
10:54 PM 33.1 °F 25.5 °F 24.1 °F 70% 29.67 in 10.0 mi SE 9.2 mph - N/A   Clear
11:54 PM 33.1 °F 24.4 °F 24.1 °F 70% 29.67 in 10.0 mi SE 11.5 mph - N/A   Clear